Home   Weather   Tours   Past weeks

Flag for France Past Weather in Tours, Centre-Val de Loire, France — Yesterday and Last 2 Weeks

Now
54 °F

Sunny.


Feels Like: 54 °F
Forecast: 37 / 51 °F
Wind: No wind

Location: Tours Airport

Current Time: Dec 6, 2016 at 1:25:06 pm

Latest Report: Dec 6, 2016 at 1:00 pm


Visibility: 10 mi

Pressure: 30.39 "Hg

Humidity: 67%

Dew Point: 43 °F

Location of ToursLocation

Past Weather in Tours — Graph

°F

Tours Temperature Yesterday

Maximum temperature yesterday: 59 °F (at 2:30 pm)
Minimum temperature yesterday: 37 °F (at 12:30 am)
Average temperature yesterday: 45 °F

High & Low Weather Summary for the Past Weeks

 TemperatureHumidityPressure
High59 °F (Nov 21, 3:30 pm)100% (Nov 23, 9:30 am)30.54 "Hg (Nov 23, 9:30 am)
Low30 °F (Nov 29, 4:00 am)53% (Nov 28, 4:00 pm)29.33 "Hg (Nov 21, 12:00 pm)
Average43 °F83%30.07 "Hg
* Reported Nov 21 12:00 pm — Dec 6 12:00 pm, Tours, Weather by CustomWeather, © 2016

Note: Actual official high and low records may vary slightly from our data, if they occured in-between our weather recording intervals... More about our weather records

Advertising

Tours Weather History for the Previous 24 Hours

Scroll right to see more
 ConditionsComfort  
Time TempWeatherWind HumidityBarometerVisibility
12:00 pm
Tue, Dec 6
52 °FSunny.No wind72%30.39 "Hg10 mi
11:30 am48 °FSunny.1 mph82%30.39 "Hg10 mi
11:00 am46 °FSunny.2 mph82%30.39 "Hg10 mi
10:30 am45 °FClear.No wind87%30.39 "Hg6 mi
10:00 am43 °FClear.No wind87%30.39 "Hg4 mi
9:30 am39 °FFog.2 mph93%30.36 "Hg3 mi
9:00 am37 °FFog.3 mph93%30.33 "Hg2 mi
8:30 am37 °FFog.2 mph93%30.33 "Hg2 mi
8:00 am37 °FLight rain. Fog.6 mph100%30.33 "Hg3 mi
7:30 am39 °FClear.3 mph93%30.33 "Hg4 mi
7:00 am39 °FFog.5 mph93%30.33 "Hg3 mi
6:30 am39 °FFog.2 mph93%30.33 "Hg3 mi
6:00 am39 °FFog.2 mph100%30.33 "Hg3 mi
5:30 am39 °FFog.2 mph100%30.33 "Hg3 mi
5:00 am39 °FClear.5 mph93%30.33 "Hg4 mi
4:30 am39 °FFog.3 mph93%30.30 "Hg3 mi
4:00 am39 °FClear.5 mph93%30.30 "Hg4 mi
3:30 am41 °FClear.3 mph87%30.30 "Hg4 mi
3:00 am41 °FClear.5 mph93%30.30 "Hg4 mi
2:30 am43 °FClear.6 mph87%30.30 "Hg5 mi
2:00 am43 °FClear.3 mph93%30.30 "Hg5 mi
1:30 am41 °FClear.5 mph93%30.30 "Hg5 mi
1:00 am41 °FClear.6 mph93%30.30 "Hg5 mi
12:30 am43 °FClear.No wind87%30.30 "Hg10 mi
12:00 am43 °FClear.No wind87%30.27 "Hg5 mi
11:30 pm
Mon, Dec 5
43 °FClear.3 mph87%30.27 "Hg6 mi
11:00 pm43 °FClear.6 mph87%30.27 "Hg10 mi
10:30 pm43 °FClear.3 mph87%30.27 "Hg10 mi
10:00 pm43 °FClear.5 mph87%30.27 "Hg10 mi
9:30 pm43 °FClear.6 mph87%30.27 "Hg10 mi
9:00 pm45 °FClear.5 mph87%30.27 "Hg10 mi
8:30 pm45 °FClear.6 mph81%30.27 "HgN/A
8:00 pm45 °FClear.6 mph87%30.24 "Hg10 mi
7:30 pm46 °FClear.5 mph82%30.24 "Hg10 mi
7:00 pm48 °FClear.3 mph76%30.24 "Hg10 mi
6:30 pm48 °FClear.2 mph76%30.24 "Hg10 mi
6:00 pm50 °FClear.2 mph76%30.21 "Hg10 mi
5:30 pm52 °FClear.6 mph72%30.21 "Hg10 mi
5:00 pm54 °FSunny.5 mph67%30.21 "Hg10 mi
4:30 pm55 °FSunny.6 mph63%30.21 "Hg10 mi
4:00 pm57 °FSunny.5 mph59%30.21 "Hg10 mi
3:30 pm59 °FSunny.7 mph55%30.21 "Hg10 mi
3:00 pm59 °FSunny.5 mph59%30.18 "Hg10 mi
2:30 pm59 °FSunny.6 mph59%30.18 "Hg10 mi
2:00 pm57 °FPassing clouds.6 mph63%30.18 "HgN/A
1:30 pm57 °FSunny.6 mph63%30.18 "Hg10 mi
1:00 pm57 °FSunny.6 mph59%30.18 "Hg10 mi
Weather by CustomWeather, © 2016

See weather overviewHow to use our weather pages